Regional Weather Roundup
Issued by NWS Sioux Falls, SD

Home | Current Version | Previous Version | Text Only | Print | Product List | Glossary On
Versions: 1 2 3 4 5 6 7 8 9 10 11 12 13 14 15 16 17 18 19 20 21 22 23 24 25 26 27 28 29 30 31 32 33 34 35 36 37 38 39 40 41 42 43 44 45 46 47 48 49 50
000
ASUS43 KFSD 072210
RWRFSD

WEATHER ROUNDUP FOR SE SOUTH DAKOTA/SW MINNESOTA/NW IOWA
NATIONAL WEATHER SERVICE SIOUX FALLS SD
400 PM CST SUN FEB 07 2016

NOTE: "FAIR" INDICATES FEW OR NO CLOUDS BELOW 12,000 FEET WITH NO
SIGNIFICANT WEATHER AND OR OBSTRUCTIONS TO VISIBILITY.


SDZ038>040-050-052>070-072300-
SOUTHEAST SOUTH DAKOTA

CITY           SKY/WX    TMP DP  RH WIND       PRES   REMARKS
CHAMBERLAIN    CLOUDY    36  22  58 NW26G36   30.00R
HURON          FLURRIES  31  23  72 NW26G40   29.92R WCI  17
MADISON        CLOUDY    28  28 100 NW35G44   29.85R WCI  12
MITCHELL       CLOUDY    34  25  69 NW31G46   29.95R WCI  20
SIOUX FALLS    CLOUDY    33  24  69 NW30G43   29.85R WCI  19
WINNER         CLOUDY    40  21  46 NW36G46   30.03R
YANKTON        CLOUDY    34  27  75 NW31G39   29.94R WCI  20
$$

MNZ071-072-080-081-089-090-097-098-072300-
SOUTHWEST MINNESOTA

CITY           SKY/WX    TMP DP  RH WIND       PRES   REMARKS
FAIRMONT       CLOUDY    36  27  69 W17       29.73R
JACKSON        CLOUDY    34  28  80 NW20G25   29.75R WCI  22
LUVERNE        CLOUDY    34  28  80 NW28G35   29.82R WCI  20
MARSHALL       LGT SNOW  32  27  81 NW28G43   29.76R WCI  18
MONTEVIDEO     CLOUDY    32  27  80 N21G37    29.77R WCI  20
PIPESTONE      LGT SNOW  34  23  64 N29G37    29.79R WCI  20
REDWOOD FALLS  FLURRIES  34  30  85 NW20G25   29.72R WCI  23
TRACY          FLURRIES  33  30  88 NW30      29.77R WCI  19
WINDOM         LGT SNOW  34  30  86 NW21G28   29.74R WCI  22
WORTHINGTON    CLOUDY    32  25  74 NW23G35   29.78R WCI  19
$$

IAZ001>003-012>014-020>022-031-032-NEZ013-014-SDZ071-072300-
NORTHWEST IOWA

CITY           SKY/WX    TMP DP  RH WIND       PRES   REMARKS
CHEROKEE       CLOUDY    34  32  93 W18       29.84S WCI  23
DENISON        LGT SNOW  34  32  93 W18       29.86S WCI  23
ESTHERVILLE    LGT SNOW  34  29  82 W22       29.75S WCI  22
LE MARS        CLOUDY    36  34  93 NW20G30   29.88R
ORANGE CITY    CLOUDY    34  30  86 NW28      29.83S WCI  20
SHELDON        CLOUDY    34  28  80 NW26G33   29.80R WCI  21
SIOUX CITY     LGT SNOW  35  30  82 NW23G32   29.89R WCI  23
SPENCER        CLOUDY    35  28  75 W25       29.79R WCI  23
STORM LAKE     LGT SNOW  32  32 100 W23       29.82S WCI  19
$$

ABBREVIATIONS USED IN REMARKS
   TC - TEMPERATURE IN CELSIUS
  WCI - WIND CHILL INDEX
   HX - HEAT INDEX
  VSB - VISIBILITY




USA.gov is the U.S. government's official web portal to all federal, state and local government web resources and services.